Flag Weather past 2 weeks in Durham, England, United Kingdom

Now
39 °F

Passing clouds.


Feels Like: 34 °F
Forecast: 39 / 46 °F
Wind: 8 mph from West

Location: Newcastle

Current Time: Nov 24, 2014 at 12:24:41 AM

Latest Report: Nov 23, 2014 at 11:50 PM


Visibility: N/A

Pressure: 30.07 "Hg

Humidity: 93%

Dew point: 37 °F

Location of DurhamLocation

Historic Weather in Durham — Graph

°F

Durham temperature yesterday

Maximum temperature yesterday: 46 °F (at 12:50 AM)
Minimum temperature yesterday: 39 °F (at 4:50 PM)
Average temperature yesterday: 43 °F

Past Weeks' High & Low Weather Summary

 TemperatureHumidityPressure
High55 °F (Nov 22, 12:50 PM)100% (Nov 9, 7:50 AM)30.30 "Hg (Nov 9, 7:50 AM)
Low32 °F (Nov 10, 4:50 AM)72% (Nov 22, 2:20 PM)29.30 "Hg (Nov 12, 1:20 AM)
Average47 °F94%29.72 "Hg
* Reported Nov 8 11:20 PM — Nov 23 11:20 PM, Durham, Weather by CustomWeather, © 2014

Note: Actual official high and low records may vary slightly from our data, if they occured in-between our weather recording intervals... More about our weather records

Advertising

Durham weather history for previous 24 hours

 ConditionsComfort  
Time TempWeatherWind HumidityBarometerVisibility
11:20 PM
Nov 23
39 °FClear.8 mph93%30.07 "Hg10 mi
10:20 PM39 °FClear.10 mph93%30.04 "Hg10 mi
9:20 PM39 °FClear.10 mph93%30.04 "Hg10 mi
8:20 PM41 °FClear.14 mph87%30.01 "Hg10 mi
7:50 PM39 °FClear.12 mph93%30.04 "Hg10 mi
7:20 PM39 °FClear.9 mph93%30.04 "Hg10 mi
6:50 PM39 °FClear.10 mph93%30.04 "Hg10 mi
6:20 PM39 °FClear.7 mph87%30.01 "Hg10 mi
5:50 PM39 °FClear.9 mph93%30.01 "Hg10 mi
5:20 PM41 °FClear.12 mph87%30.01 "Hg10 mi
4:50 PM39 °FClear.9 mph93%30.01 "Hg10 mi
4:20 PM41 °FClear.8 mph87%30.01 "Hg10 mi
3:20 PM43 °FSunny.9 mph87%30.01 "Hg10 mi
2:50 PM45 °FSunny.8 mph81%30.01 "Hg10 mi
2:20 PM46 °FSunny.6 mph82%29.98 "Hg10 mi
1:50 PM46 °FSunny.7 mph82%29.98 "Hg10 mi
1:20 PM46 °FSunny.8 mph82%29.98 "Hg10 mi
12:50 PM45 °FSunny.9 mph87%29.98 "Hg10 mi
12:20 PM45 °FSunny.12 mph87%30.01 "Hg10 mi
11:50 AM45 °FPassing clouds.7 mph87%30.01 "HgN/A
11:20 AM45 °FSunny.9 mph93%30.01 "Hg10 mi
10:50 AM45 °FSunny.7 mph93%30.01 "Hg10 mi
10:20 AM45 °FSunny.5 mph93%30.01 "Hg10 mi
9:50 AM45 °FSunny.7 mph93%30.01 "Hg10 mi
9:20 AM45 °FSunny.7 mph93%30.01 "Hg10 mi
8:50 AM45 °FSunny.6 mph93%30.01 "Hg10 mi
8:20 AM43 °FSunny.3 mph93%30.01 "Hg10 mi
7:50 AM43 °FClear.3 mph100%29.98 "Hg10 mi
7:20 AM45 °FPassing clouds.5 mph93%29.98 "HgN/A
6:50 AM45 °FPassing clouds.6 mph93%29.98 "HgN/A
6:20 AM45 °FClear.3 mph93%29.98 "Hg10 mi
5:50 AM45 °FClear.6 mph93%29.98 "Hg10 mi
5:20 AM45 °FPassing clouds.7 mph93%29.98 "HgN/A
4:50 AM46 °FPassing clouds.9 mph93%29.98 "HgN/A
4:20 AM46 °FPassing clouds.8 mph93%29.95 "HgN/A
3:50 AM46 °FPassing clouds.10 mph93%29.95 "HgN/A
2:50 AM46 °FPassing clouds.9 mph93%29.95 "HgN/A
1:50 AM46 °FPassing clouds.8 mph93%29.95 "HgN/A
1:20 AM46 °FPassing clouds.7 mph100%29.95 "HgN/A
12:50 AM46 °FClear.3 mph93%29.95 "Hg10 mi
Weather by CustomWeather, © 2014

See weather overviewHow to use our weather pages